| time (UTC) | temp F | wind direction | speed knots | gust knots | rain 1hr in | rain 24hr in | rain mn in | humidity % | barometer mb |
| 20260506220014 | 56 | 31 | 0.0 | 0.0 | 0.00 | 0.16 | 0.01 | 89 | 1012.5 |
| 20260506215522 | 56 | 31 | 0.0 | 0.0 | 0.00 | 0.16 | 0.01 | 89 | 1012.6 |
| 20260506215010 | 56 | 31 | 0.0 | 0.0 | 0.00 | 0.16 | 0.01 | 89 | 1012.6 |
| 20260506214539 | 56 | 31 | 0.0 | 0.0 | 0.00 | 0.16 | 0.01 | 89 | 1012.6 |
| 20260506214026 | 56 | 31 | 0.0 | 0.0 | 0.00 | 0.16 | 0.01 | 89 | 1012.6 |
| 20260506213534 | 56 | 31 | 0.0 | 0.0 | 0.00 | 0.16 | 0.01 | 89 | 1012.5 |
| 20260506213022 | 56 | 31 | 0.0 | 0.0 | 0.00 | 0.16 | 0.01 | 88 | 1012.5 |
| 20260506212510 | 56 | 31 | 0.0 | 0.0 | 0.00 | 0.16 | 0.01 | 88 | 1012.4 |
| 20260506212017 | 57 | 31 | 0.0 | 0.0 | 0.00 | 0.16 | 0.01 | 87 | 1012.5 |
| 20260506211546 | 57 | 31 | 0.0 | 0.0 | 0.00 | 0.16 | 0.01 | 87 | 1012.5 |
| 20260506211013 | 57 | 31 | 0.0 | 0.0 | 0.00 | 0.16 | 0.01 | 86 | 1012.6 |
| 20260506210521 | 57 | 31 | 0.0 | 0.0 | 0.00 | 0.16 | 0.01 | 85 | 1012.6 |
| 20260506210047 | 57 | 31 | 0.0 | 0.0 | 0.00 | 0.16 | 0.01 | 84 | 1012.5 |
| 20260506205514 | 57 | 31 | 0.0 | 0.0 | 0.00 | 0.16 | 0.01 | 85 | 1012.5 |
| 20260506205022 | 57 | 31 | 0.0 | 0.0 | 0.00 | 0.16 | 0.01 | 85 | 1012.6 |
| 20260506204514 | 57 | 31 | 0.0 | 0.0 | 0.00 | 0.16 | 0.01 | 85 | 1012.6 |
| 20260506204039 | 57 | 31 | 0.0 | 0.0 | 0.00 | 0.16 | 0.01 | 85 | 1012.5 |
| 20260506203525 | 57 | 31 | 0.0 | 0.0 | 0.00 | 0.16 | 0.01 | 85 | 1012.5 |
| 20260506203016 | 57 | 31 | 0.0 | 0.0 | 0.00 | 0.16 | 0.01 | 85 | 1012.5 |
| 20260506202524 | 57 | 31 | 0.0 | 0.0 | 0.00 | 0.16 | 0.01 | 85 | 1012.5 |
| 20260506202013 | 58 | 31 | 0.0 | 0.0 | 0.00 | 0.16 | 0.01 | 84 | 1012.5 |
| 20260506201521 | 58 | 31 | 0.0 | 0.0 | 0.00 | 0.16 | 0.01 | 84 | 1012.4 |
| 20260506201028 | 58 | 31 | 0.0 | 0.0 | 0.00 | 0.16 | 0.01 | 82 | 1012.4 |
| 20260506200537 | 58 | 31 | 0.0 | 0.0 | 0.00 | 0.16 | 0.01 | 82 | 1012.3 |
| 20260506200045 | 58 | 31 | 0.0 | 0.0 | 0.00 | 0.16 | 0.01 | 82 | 1012.4 |
| 20260506195528 | 58 | 31 | 0.0 | 0.0 | 0.00 | 0.16 | 0.01 | 82 | 1012.3 |
| 20260506195014 | 58 | 31 | 0.0 | 0.0 | 0.00 | 0.16 | 0.01 | 82 | 1012.3 |
| 20260506194518 | 58 | 31 | 0.0 | 0.0 | 0.00 | 0.16 | 0.01 | 81 | 1012.2 |
| 20260506194020 | 58 | 31 | 0.0 | 0.0 | 0.00 | 0.16 | 0.01 | 81 | 1012.3 |
| 20260506193525 | 58 | 31 | 0.0 | 0.0 | 0.00 | 0.16 | 0.01 | 81 | 1012.3 |
| 20260506193028 | 58 | 31 | 0.0 | 0.0 | 0.00 | 0.16 | 0.01 | 81 | 1012.2 |
| 20260506192512 | 58 | 31 | 0.0 | 0.0 | 0.00 | 0.16 | 0.01 | 80 | 1012.2 |
| 20260506192038 | 58 | 31 | 0.0 | 0.0 | 0.00 | 0.16 | 0.01 | 80 | 1012.2 |
| 20260506191520 | 58 | 31 | 0.0 | 2.6 | 0.00 | 0.16 | 0.01 | 80 | 1012.2 |
| 20260506191048 | 58 | 31 | 0.0 | 2.6 | 0.00 | 0.16 | 0.01 | 80 | 1012.3 |
| 20260506190546 | 58 | 31 | 0.0 | 0.9 | 0.00 | 0.16 | 0.01 | 80 | 1012.2 |
| 20260506190029 | 59 | 31 | 0.0 | 2.6 | 0.00 | 0.16 | 0.01 | 79 | 1012.2 |
| 20260506185515 | 59 | 31 | 0.9 | 2.6 | 0.00 | 0.16 | 0.01 | 80 | 1012.1 |
| 20260506185043 | 59 | 31 | 0.0 | 3.5 | 0.00 | 0.16 | 0.01 | 79 | 1012.2 |
| 20260506184527 | 59 | 31 | 2.6 | 3.5 | 0.00 | 0.16 | 0.01 | 79 | 1012.1 |
| 20260506184014 | 59 | 33 | 0.9 | 3.5 | 0.00 | 0.16 | 0.01 | 78 | 1012.1 |
| 20260506183520 | 59 | 33 | 0.9 | 4.3 | 0.00 | 0.16 | 0.01 | 78 | 1012.0 |
| 20260506183025 | 59 | 22 | 0.9 | 4.3 | 0.00 | 0.16 | 0.01 | 78 | 1012.0 |
| 20260506182513 | 59 | 22 | 1.7 | 4.3 | 0.00 | 0.16 | 0.01 | 79 | 1012.2 |
| 20260506182017 | 60 | 346 | 1.7 | 3.5 | 0.00 | 0.16 | 0.01 | 79 | 1012.2 |
| 20260506181523 | 60 | 345 | 0.0 | 3.5 | 0.00 | 0.16 | 0.01 | 79 | 1012.2 |
| 20260506181026 | 60 | 345 | 0.9 | 4.3 | 0.00 | 0.16 | 0.01 | 79 | 1012.2 |
| 20260506180511 | 60 | 345 | 2.6 | 5.2 | 0.00 | 0.16 | 0.01 | 79 | 1012.2 |
| 20260506180017 | 60 | 340 | 0.9 | 7.0 | 0.00 | 0.16 | 0.01 | 79 | 1012.2 |
| 20260506175540 | 60 | 329 | 2.6 | 7.0 | 0.00 | 0.16 | 0.01 | 79 | 1012.2 |
| 20260506175017 | 60 | 355 | 0.0 | 4.3 | 0.00 | 0.16 | 0.01 | 80 | 1012.3 |
| 20260506174519 | 60 | 5 | 1.7 | 8.7 | 0.00 | 0.16 | 0.01 | 80 | 1012.3 |
| 20260506174020 | 60 | 318 | 3.5 | 8.7 | 0.00 | 0.16 | 0.01 | 79 | 1012.3 |
| 20260506173523 | 60 | 355 | 2.6 | 7.8 | 0.00 | 0.16 | 0.01 | 80 | 1012.2 |
| 20260506173011 | 60 | 330 | 2.6 | 8.7 | 0.00 | 0.16 | 0.01 | 79 | 1012.2 |
| 20260506172514 | 61 | 15 | 4.3 | 7.8 | 0.00 | 0.16 | 0.01 | 79 | 1012.2 |
| 20260506172017 | 61 | 355 | 4.3 | 8.7 | 0.00 | 0.16 | 0.01 | 77 | 1012.2 |
| 20260506171538 | 62 | 38 | 4.3 | 8.7 | 0.00 | 0.16 | 0.01 | 77 | 1012.3 |
| 20260506171041 | 62 | 294 | 3.5 | 7.8 | 0.00 | 0.16 | 0.01 | 78 | 1012.2 |
| 20260506170522 | 62 | 315 | 3.5 | 7.8 | 0.00 | 0.16 | 0.01 | 77 | 1012.3 |
| 20260506170028 | 62 | 306 | 3.5 | 7.0 | 0.00 | 0.16 | 0.01 | 78 | 1012.3 |
| 20260506165515 | 62 | 289 | 1.7 | 7.0 | 0.00 | 0.16 | 0.01 | 77 | 1012.4 |
| 20260506165043 | 62 | 294 | 3.5 | 7.8 | 0.00 | 0.16 | 0.01 | 77 | 1012.3 |
| 20260506164510 | 62 | 288 | 2.6 | 7.8 | 0.00 | 0.16 | 0.01 | 77 | 1012.3 |
| 20260506164038 | 62 | 21 | 1.7 | 8.7 | 0.00 | 0.16 | 0.01 | 77 | 1012.2 |
| 20260506163526 | 62 | 19 | 3.5 | 9.6 | 0.00 | 0.16 | 0.01 | 77 | 1012.2 |
| 20260506163034 | 62 | 11 | 4.3 | 9.6 | 0.00 | 0.16 | 0.01 | 76 | 1012.1 |
| 20260506162541 | 62 | 350 | 1.7 | 7.8 | 0.00 | 0.16 | 0.01 | 76 | 1012.2 |
| 20260506162029 | 62 | 310 | 1.7 | 7.0 | 0.00 | 0.16 | 0.01 | 76 | 1012.2 |
| 20260506161517 | 62 | 307 | 4.3 | 7.0 | 0.00 | 0.16 | 0.01 | 75 | 1012.1 |
| 20260506161045 | 62 | 340 | 1.7 | 7.8 | 0.00 | 0.16 | 0.01 | 76 | 1012.1 |
| 20260506160532 | 62 | 281 | 2.6 | 7.8 | 0.00 | 0.16 | 0.01 | 76 | 1012.2 |
| 20260506160018 | 62 | 315 | 0.9 | 8.7 | 0.00 | 0.16 | 0.01 | 76 | 1012.1 |
| 20260506155544 | 61 | 337 | 2.6 | 8.7 | 0.00 | 0.16 | 0.01 | 75 | 1012.2 |
| 20260506155029 | 61 | 313 | 2.6 | 7.8 | 0.00 | 0.16 | 0.01 | 76 | 1012.2 |
| 20260506154516 | 61 | 316 | 4.3 | 8.7 | 0.00 | 0.16 | 0.01 | 75 | 1012.2 |
| 20260506154021 | 62 | 286 | 4.3 | 9.6 | 0.00 | 0.16 | 0.01 | 74 | 1012.2 |
| 20260506153528 | 62 | 313 | 6.1 | 9.6 | 0.00 | 0.16 | 0.01 | 73 | 1012.3 |
| 20260506153014 | 62 | 311 | 3.5 | 9.6 | 0.00 | 0.16 | 0.01 | 73 | 1012.3 |
| 20260506152522 | 62 | 277 | 3.5 | 9.6 | 0.00 | 0.16 | 0.01 | 72 | 1012.3 |
| 20260506152027 | 62 | 316 | 4.3 | 8.7 | 0.00 | 0.16 | 0.01 | 72 | 1012.4 |
| 20260506151515 | 62 | 296 | 3.5 | 9.6 | 0.00 | 0.16 | 0.01 | 73 | 1012.4 |
| 20260506151019 | 62 | 30 | 6.1 | 9.6 | 0.00 | 0.16 | 0.01 | 72 | 1012.5 |
| 20260506150525 | 62 | 292 | 4.3 | 7.8 | 0.00 | 0.16 | 0.01 | 74 | 1012.6 |
| 20260506150015 | 62 | 282 | 2.6 | 10.4 | 0.00 | 0.16 | 0.01 | 74 | 1012.6 |
| 20260506145520 | 62 | 343 | 3.5 | 11.3 | 0.00 | 0.16 | 0.01 | 74 | 1012.6 |
| 20260506145024 | 63 | 319 | 3.5 | 10.4 | 0.00 | 0.16 | 0.01 | 72 | 1012.6 |
| 20260506144529 | 63 | 300 | 2.6 | 10.4 | 0.00 | 0.16 | 0.01 | 73 | 1012.6 |
| 20260506144016 | 62 | 291 | 1.7 | 9.6 | 0.00 | 0.16 | 0.01 | 74 | 1012.7 |
| 20260506143521 | 62 | 343 | 6.1 | 12.2 | 0.00 | 0.16 | 0.01 | 75 | 1012.7 |
| 20260506143024 | 62 | 307 | 4.3 | 12.2 | 0.00 | 0.16 | 0.01 | 77 | 1012.7 |
| 20260506142528 | 62 | 360 | 5.2 | 12.2 | 0.00 | 0.16 | 0.01 | 78 | 1012.9 |
| 20260506142012 | 62 | 355 | 4.3 | 11.3 | 0.00 | 0.16 | 0.01 | 81 | 1012.8 |
| 20260506141516 | 62 | 282 | 7.0 | 11.3 | 0.00 | 0.16 | 0.01 | 76 | 1012.8 |
| 20260506141035 | 62 | 306 | 5.2 | 12.2 | 0.00 | 0.16 | 0.01 | 77 | 1012.8 |
| 20260506140535 | 62 | 300 | 6.1 | 12.2 | 0.00 | 0.16 | 0.01 | 75 | 1012.8 |
| 20260506140020 | 61 | 351 | 6.1 | 12.2 | 0.00 | 0.16 | 0.01 | 75 | 1012.9 |
| 20260506135523 | 62 | 304 | 5.2 | 11.3 | 0.00 | 0.16 | 0.01 | 76 | 1012.9 |
| 20260506135025 | 61 | 298 | 5.2 | 12.2 | 0.00 | 0.16 | 0.01 | 76 | 1012.9 |
| 20260506134513 | 61 | 319 | 3.5 | 12.2 | 0.00 | 0.16 | 0.01 | 77 | 1012.9 |
| 20260506134015 | 61 | 281 | 5.2 | 12.2 | 0.00 | 0.16 | 0.01 | 76 | 1013.0 |
| 20260506133518 | 60 | 286 | 4.3 | 10.4 | 0.00 | 0.16 | 0.01 | 79 | 1013.0 |
| 20260506133020 | 60 | 294 | 2.6 | 10.4 | 0.00 | 0.16 | 0.01 | 79 | 1013.1 |
| 20260506132523 | 60 | 360 | 4.3 | 12.2 | 0.00 | 0.16 | 0.01 | 79 | 1013.2 |
| 20260506132021 | 60 | 292 | 2.6 | 12.2 | 0.00 | 0.16 | 0.01 | 79 | 1013.1 |
| 20260506131525 | 60 | 298 | 4.3 | 10.4 | 0.00 | 0.16 | 0.01 | 80 | 1013.1 |
| 20260506131011 | 60 | 331 | 4.3 | 9.6 | 0.00 | 0.16 | 0.01 | 79 | 1013.1 |
| 20260506130550 | 60 | 295 | 3.5 | 9.6 | 0.00 | 0.16 | 0.01 | 78 | 1013.1 |
| 20260506130012 | 60 | 313 | 4.3 | 7.8 | 0.00 | 0.16 | 0.01 | 78 | 1013.1 |
| 20260506125517 | 60 | 287 | 3.5 | 7.8 | 0.00 | 0.16 | 0.01 | 78 | 1013.1 |
| 20260506125023 | 60 | 322 | 1.7 | 9.6 | 0.00 | 0.16 | 0.01 | 77 | 1013.2 |
| 20260506124510 | 60 | 281 | 2.6 | 9.6 | 0.00 | 0.16 | 0.01 | 76 | 1013.2 |
| 20260506124037 | 60 | 242 | 2.6 | 9.6 | 0.00 | 0.16 | 0.01 | 76 | 1013.2 |
| 20260506123544 | 60 | 333 | 4.3 | 8.7 | 0.00 | 0.16 | 0.01 | 75 | 1013.2 |
| 20260506123011 | 60 | 261 | 4.3 | 8.7 | 0.00 | 0.16 | 0.01 | 73 | 1013.2 |
| 20260506122520 | 60 | 261 | 1.7 | 8.7 | 0.00 | 0.16 | 0.01 | 74 | 1013.2 |
| 20260506122047 | 61 | 304 | 1.7 | 10.4 | 0.00 | 0.16 | 0.01 | 75 | 1013.2 |
| 20260506121514 | 61 | 297 | 2.6 | 10.4 | 0.00 | 0.16 | 0.01 | 74 | 1013.2 |
| 20260506121021 | 61 | 314 | 3.5 | 8.7 | 0.00 | 0.16 | 0.01 | 73 | 1013.3 |
| 20260506120529 | 62 | 258 | 3.5 | 8.7 | 0.00 | 0.16 | 0.01 | 73 | 1013.2 |
| 20260506120016 | 62 | 281 | 5.2 | 9.6 | 0.00 | 0.16 | 0.01 | 71 | 1013.3 |
| 20260506115519 | 62 | 296 | 3.5 | 9.6 | 0.00 | 0.16 | 0.01 | 71 | 1013.3 |
| 20260506115022 | 62 | 309 | 4.3 | 9.6 | 0.00 | 0.16 | 0.01 | 70 | 1013.3 |
| 20260506114526 | 62 | 292 | 5.2 | 9.6 | 0.00 | 0.16 | 0.01 | 69 | 1013.3 |
| 20260506114013 | 62 | 278 | 3.5 | 7.8 | 0.00 | 0.16 | 0.01 | 69 | 1013.3 |
| 20260506113517 | 62 | 304 | 2.6 | 8.7 | 0.00 | 0.16 | 0.01 | 70 | 1013.4 |
| 20260506113019 | 62 | 275 | 5.2 | 10.4 | 0.00 | 0.16 | 0.01 | 71 | 1013.4 |
| 20260506112518 | 61 | 278 | 6.1 | 10.4 | 0.00 | 0.16 | 0.01 | 72 | 1013.5 |
| 20260506112020 | 61 | 311 | 4.3 | 9.6 | 0.00 | 0.16 | 0.01 | 72 | 1013.4 |
| 20260506111523 | 61 | 311 | 4.3 | 9.6 | 0.00 | 0.16 | 0.01 | 73 | 1013.5 |
| 20260506111011 | 62 | 340 | 3.5 | 8.7 | 0.00 | 0.16 | 0.01 | 72 | 1013.5 |
| 20260506110529 | 62 | 11 | 1.7 | 10.4 | 0.00 | 0.16 | 0.01 | 72 | 1013.5 |
| 20260506110010 | 62 | 294 | 5.2 | 9.6 | 0.00 | 0.16 | 0.01 | 71 | 1013.5 |
| 20260506105514 | 62 | 270 | 4.3 | 8.7 | 0.00 | 0.16 | 0.01 | 71 | 1013.4 |
| 20260506105036 | 61 | 287 | 1.7 | 8.7 | 0.00 | 0.16 | 0.01 | 73 | 1013.4 |
| 20260506104549 | 61 | 345 | 5.2 | 8.7 | 0.00 | 0.16 | 0.01 | 71 | 1013.5 |
| 20260506104012 | 61 | 286 | 1.7 | 8.7 | 0.00 | 0.16 | 0.01 | 72 | 1013.6 |
| 20260506103515 | 61 | 271 | 4.3 | 9.6 | 0.00 | 0.16 | 0.01 | 71 | 1013.6 |
| 20260506103038 | 60 | 283 | 5.2 | 9.6 | 0.00 | 0.16 | 0.01 | 71 | 1013.5 |
| 20260506102520 | 60 | 270 | 5.2 | 9.6 | 0.00 | 0.16 | 0.01 | 70 | 1013.6 |
| 20260506102023 | 60 | 261 | 4.3 | 8.7 | 0.00 | 0.16 | 0.01 | 70 | 1013.7 |
| 20260506101526 | 60 | 275 | 3.5 | 8.7 | 0.00 | 0.16 | 0.01 | 70 | 1013.7 |
| 20260506101029 | 61 | 270 | 1.7 | 7.8 | 0.00 | 0.16 | 0.01 | 70 | 1013.6 |
| 20260506100514 | 61 | 230 | 2.6 | 7.0 | 0.00 | 0.16 | 0.01 | 71 | 1013.5 |
| 20260506100038 | 61 | 202 | 1.7 | 7.0 | 0.00 | 0.20 | 0.01 | 71 | 1013.5 |
| 20260506095520 | 61 | 199 | 3.5 | 7.0 | 0.00 | 0.20 | 0.01 | 71 | 1013.5 |
| 20260506095024 | 61 | 181 | 2.6 | 6.1 | 0.00 | 0.20 | 0.01 | 72 | 1013.7 |
| 20260506094527 | 60 | 208 | 0.0 | 7.8 | 0.00 | 0.20 | 0.01 | 72 | 1013.5 |
| 20260506094013 | 60 | 203 | 4.3 | 7.8 | 0.00 | 0.20 | 0.01 | 73 | 1013.6 |
| 20260506093516 | 60 | 227 | 3.5 | 7.8 | 0.00 | 0.20 | 0.01 | 73 | 1013.6 |
| 20260506093019 | 60 | 197 | 3.5 | 7.0 | 0.00 | 0.20 | 0.01 | 73 | 1013.5 |
| 20260506092522 | 60 | 206 | 1.7 | 5.2 | 0.00 | 0.20 | 0.01 | 74 | 1013.5 |
| 20260506092025 | 60 | 194 | 1.7 | 5.2 | 0.00 | 0.20 | 0.01 | 74 | 1013.6 |
| 20260506091525 | 60 | 186 | 3.5 | 6.1 | 0.00 | 0.20 | 0.01 | 75 | 1013.5 |
| 20260506091028 | 59 | 200 | 3.5 | 6.1 | 0.00 | 0.20 | 0.01 | 75 | 1013.5 |
| 20260506090511 | 59 | 208 | 0.9 | 7.8 | 0.00 | 0.20 | 0.01 | 75 | 1013.4 |
| 20260506090017 | 59 | 207 | 4.3 | 7.8 | 0.00 | 0.28 | 0.01 | 76 | 1013.5 |
| 20260506085539 | 58 | 262 | 2.6 | 8.7 | 0.00 | 0.28 | 0.01 | 76 | 1013.4 |
| 20260506085021 | 58 | 211 | 2.6 | 7.0 | 0.00 | 0.28 | 0.01 | 76 | 1013.5 |
| 20260506084545 | 58 | 196 | 4.3 | 7.0 | 0.00 | 0.28 | 0.01 | 77 | 1013.5 |
| 20260506084027 | 58 | 212 | 2.6 | 7.8 | 0.00 | 0.28 | 0.01 | 78 | 1013.5 |
| 20260506083551 | 57 | 181 | 1.7 | 6.1 | 0.00 | 0.28 | 0.01 | 79 | 1013.5 |
| 20260506083012 | 57 | 200 | 3.5 | 6.1 | 0.00 | 0.28 | 0.01 | 81 | 1013.5 |
| 20260506082536 | 56 | 176 | 3.5 | 6.1 | 0.00 | 0.28 | 0.01 | 82 | 1013.5 |
| 20260506082015 | 56 | 186 | 1.7 | 5.2 | 0.00 | 0.28 | 0.01 | 84 | 1013.5 |
| 20260506081517 | 56 | 186 | 1.7 | 4.3 | 0.00 | 0.28 | 0.01 | 86 | 1013.6 |
| 20260506081021 | 55 | 186 | 0.9 | 5.2 | 0.00 | 0.28 | 0.01 | 86 | 1013.6 |
| 20260506080524 | 55 | 186 | 2.6 | 5.2 | 0.00 | 0.28 | 0.01 | 86 | 1013.6 |
| 20260506073522 | 54 | 208 | 0.9 | 5.2 | 0.00 | 0.28 | 0.01 | 86 | 1013.5 |
| 20260506073026 | 54 | 211 | 1.7 | 6.1 | 0.00 | 0.28 | 0.01 | 86 | 1013.5 |
| 20260506072529 | 54 | 213 | 1.7 | 6.1 | 0.00 | 0.28 | 0.01 | 86 | 1013.5 |
| 20260506072033 | 54 | 216 | 2.6 | 4.3 | 0.00 | 0.28 | 0.01 | 86 | 1013.5 |
| 20260506071515 | 54 | 217 | 2.6 | 3.5 | 0.00 | 0.28 | 0.01 | 86 | 1013.5 |
| 20260506071037 | 54 | 218 | 0.9 | 3.5 | 0.00 | 0.28 | 0.01 | 86 | 1013.5 |
| 20260506070518 | 54 | 218 | 1.7 | 4.3 | 0.00 | 0.28 | 0.01 | 86 | 1013.5 |
| 20260506062028 | 53 | 218 | 0.0 | 2.6 | 0.00 | 0.28 | 0.01 | 89 | 1013.3 |
| 20260506061552 | 53 | 218 | 0.0 | 0.0 | 0.00 | 0.28 | 0.01 | 89 | 1013.2 |
| 20260506061012 | 53 | 218 | 0.0 | 2.6 | 0.00 | 0.28 | 0.01 | 89 | 1013.2 |
| 20260506060515 | 53 | 218 | 0.0 | 2.6 | 0.00 | 0.28 | 0.01 | 89 | 1013.2 |
| 20260506051022 | 52 | 217 | 0.0 | 2.6 | 0.00 | 0.28 | 0.01 | 92 | 1012.9 |
| 20260506050545 | 52 | 217 | 0.9 | 3.5 | 0.00 | 0.28 | 0.01 | 92 | 1012.8 |
| 20260506045016 | 52 | 217 | 0.9 | 4.3 | 0.00 | 0.28 | 0.01 | 92 | 1012.8 |
| 20260506044521 | 52 | 217 | 1.7 | 4.3 | 0.00 | 0.28 | 0.01 | 92 | 1012.7 |
| 20260506044045 | 52 | 217 | 0.9 | 3.5 | 0.00 | 0.28 | 0.01 | 92 | 1012.9 |
| 20260506043546 | 52 | 217 | 0.9 | 3.5 | 0.00 | 0.28 | 0.01 | 92 | 1012.9 |
| 20260506043045 | 52 | 217 | 0.9 | 3.5 | 0.00 | 0.28 | 0.01 | 92 | 1012.9 |
| 20260506042511 | 52 | 217 | 0.9 | 3.5 | 0.00 | 0.28 | 0.01 | 92 | 1012.9 |
| 20260506042014 | 52 | 217 | 0.0 | 2.6 | 0.00 | 0.28 | 0.01 | 92 | 1013.0 |
| 20260506041518 | 52 | 217 | 0.0 | 2.6 | 0.00 | 0.28 | 0.01 | 92 | 1013.1 |
| 20260506041019 | 52 | 217 | 0.9 | 5.2 | 0.00 | 0.28 | 0.01 | 93 | 1013.1 |
| 20260506040522 | 52 | 217 | 0.9 | 5.2 | 0.00 | 0.28 | 0.01 | 93 | 1013.1 |
| 20260506040026 | 52 | 217 | 0.0 | 3.5 | 0.00 | 0.31 | 0.01 | 93 | 1013.1 |
| 20260506035528 | 52 | 217 | 0.9 | 4.3 | 0.00 | 0.31 | 0.01 | 93 | 1013.1 |
| 20260506035011 | 52 | 217 | 0.9 | 6.1 | 0.00 | 0.31 | 0.01 | 93 | 1013.1 |
| 20260506034515 | 52 | 217 | 2.6 | 6.1 | 0.00 | 0.31 | 0.01 | 93 | 1013.1 |
| 20260506034038 | 52 | 218 | 1.7 | 6.1 | 0.00 | 0.31 | 0.01 | 93 | 1013.2 |
| 20260506033520 | 52 | 238 | 1.7 | 3.5 | 0.00 | 0.31 | 0.01 | 94 | 1013.2 |
| 20260506033022 | 52 | 238 | 0.9 | 3.5 | 0.00 | 0.31 | 0.01 | 94 | 1013.2 |
| 20260506032524 | 52 | 238 | 1.7 | 2.6 | 0.00 | 0.31 | 0.01 | 94 | 1013.3 |
| 20260506032027 | 52 | 238 | 0.9 | 3.5 | 0.04 | 0.31 | 0.01 | 94 | 1013.3 |
| 20260506031530 | 52 | 238 | 0.9 | 3.5 | 0.04 | 0.31 | 0.01 | 94 | 1013.1 |
| 20260506031013 | 52 | 238 | 1.7 | 3.5 | 0.04 | 0.31 | 0.01 | 94 | 1013.2 |
| 20260506030517 | 52 | 238 | 0.0 | 4.3 | 0.04 | 0.31 | 0.01 | 94 | 1013.1 |
| 20260506030020 | 52 | 238 | 0.9 | 4.3 | 0.04 | 0.31 | 0.01 | 94 | 1013.2 |
| 20260506025528 | 52 | 238 | 0.9 | 4.3 | 0.04 | 0.31 | 0.01 | 94 | 1013.3 |
| 20260506025016 | 52 | 238 | 0.9 | 4.3 | 0.04 | 0.31 | 0.01 | 94 | 1013.1 |
| 20260506024523 | 52 | 238 | 0.9 | 2.6 | 0.04 | 0.31 | 0.01 | 94 | 1013.1 |
| 20260506024013 | 52 | 238 | 0.0 | 0.0 | 0.04 | 0.31 | 0.01 | 95 | 1013.2 |
| 20260506023541 | 52 | 238 | 0.0 | 0.0 | 0.04 | 0.31 | 0.01 | 95 | 1013.2 |
| 20260506023028 | 52 | 238 | 0.0 | 0.0 | 0.04 | 0.31 | 0.01 | 95 | 1013.2 |
| 20260506022516 | 52 | 238 | 0.0 | 0.0 | 0.04 | 0.31 | 0.01 | 95 | 1013.2 |
| 20260506022021 | 52 | 238 | 0.0 | 2.6 | 0.00 | 0.28 | 0.00 | 95 | 1013.2 |
| 20260506021528 | 52 | 238 | 0.0 | 2.6 | 0.00 | 0.28 | 0.00 | 95 | 1013.2 |
| 20260506021015 | 52 | 238 | 0.9 | 2.6 | 0.00 | 0.28 | 0.00 | 94 | 1013.4 |
| 20260506020524 | 52 | 238 | 0.0 | 1.7 | 0.00 | 0.28 | 0.00 | 94 | 1013.3 |
| 20260506020011 | 52 | 238 | 0.0 | 2.6 | 0.00 | 0.28 | 0.00 | 94 | 1013.3 |
| 20260506015519 | 52 | 238 | 0.9 | 3.5 | 0.00 | 0.28 | 0.00 | 94 | 1013.3 |
| 20260506015027 | 52 | 238 | 1.7 | 3.5 | 0.00 | 0.28 | 0.00 | 94 | 1013.3 |
| 20260506014516 | 52 | 238 | 0.0 | 2.6 | 0.00 | 0.28 | 0.00 | 94 | 1013.4 |
| 20260506014021 | 52 | 238 | 0.0 | 2.6 | 0.00 | 0.28 | 0.00 | 94 | 1013.3 |
| 20260506013529 | 52 | 238 | 0.0 | 2.6 | 0.00 | 0.28 | 0.00 | 94 | 1013.3 |
| 20260506013016 | 52 | 238 | 0.9 | 3.5 | 0.00 | 0.28 | 0.00 | 94 | 1013.3 |
| 20260506012524 | 52 | 238 | 0.9 | 3.5 | 0.00 | 0.28 | 0.00 | 94 | 1013.3 |
| 20260506012011 | 52 | 238 | 0.0 | 3.5 | 0.00 | 0.28 | 0.00 | 94 | 1013.4 |
| 20260506011520 | 52 | 238 | 0.9 | 3.5 | 0.00 | 0.28 | 0.00 | 94 | 1013.5 |
| 20260506011028 | 52 | 238 | 0.0 | 2.6 | 0.00 | 0.28 | 0.00 | 94 | 1013.5 |
| 20260506010537 | 52 | 238 | 0.0 | 2.6 | 0.00 | 0.28 | 0.00 | 94 | 1013.7 |
| 20260506010025 | 53 | 238 | 0.9 | 2.6 | 0.00 | 0.28 | 0.00 | 94 | 1013.8 |
| 20260506005513 | 53 | 238 | 0.0 | 3.5 | 0.00 | 0.28 | 0.00 | 94 | 1013.9 |
| 20260506005021 | 53 | 239 | 0.9 | 3.5 | 0.00 | 0.28 | 0.00 | 94 | 1013.9 |
| 20260506004529 | 53 | 238 | 0.0 | 3.5 | 0.00 | 0.28 | 0.00 | 94 | 1013.9 |
| 20260506004016 | 53 | 238 | 0.9 | 3.5 | 0.00 | 0.28 | 0.00 | 94 | 1014.0 |
| 20260506003522 | 53 | 238 | 0.9 | 3.5 | 0.00 | 0.28 | 0.00 | 94 | 1014.0 |
| 20260506003051 | 53 | 239 | 1.7 | 6.1 | 0.00 | 0.28 | 0.00 | 94 | 1014.0 |
| 20260506002518 | 53 | 239 | 1.7 | 6.1 | 0.00 | 0.28 | 0.00 | 94 | 1014.1 |
| 20260506002046 | 53 | 240 | 0.9 | 4.3 | 0.00 | 0.28 | 0.00 | 94 | 1014.0 |
| 20260506001533 | 53 | 240 | 0.9 | 3.5 | 0.00 | 0.28 | 0.00 | 94 | 1014.0 |
| 20260506001016 | 53 | 240 | 0.0 | 4.3 | 0.00 | 0.28 | 0.00 | 94 | 1014.0 |
| 20260506000524 | 53 | 240 | 0.0 | 4.3 | 0.00 | 0.28 | 0.00 | 94 | 1014.0 |
| 20260506000012 | 53 | 242 | 1.7 | 4.3 | 0.00 | 0.28 | 0.06 | 94 | 1014.1 |
| 20260505235519 | 53 | 242 | 0.9 | 4.3 | 0.00 | 0.28 | 0.06 | 93 | 1014.0 |
| 20260505235027 | 53 | 242 | 0.9 | 3.5 | 0.00 | 0.28 | 0.06 | 93 | 1014.1 |
| 20260505234535 | 53 | 242 | 0.0 | 3.5 | 0.00 | 0.28 | 0.06 | 93 | 1014.1 |
| 20260505234022 | 54 | 242 | 0.0 | 0.0 | 0.00 | 0.28 | 0.06 | 93 | 1014.2 |
| 20260505233510 | 54 | 242 | 0.0 | 0.0 | 0.00 | 0.28 | 0.06 | 93 | 1014.2 |
| 20260505233017 | 54 | 242 | 0.0 | 0.9 | 0.00 | 0.28 | 0.06 | 93 | 1014.1 |
| 20260505232544 | 54 | 242 | 0.0 | 0.9 | 0.04 | 0.28 | 0.06 | 93 | 1014.1 |
| 20260505232032 | 54 | 242 | 0.0 | 3.5 | 0.04 | 0.28 | 0.06 | 93 | 1014.1 |
| 20260505231519 | 54 | 242 | 0.9 | 3.5 | 0.04 | 0.28 | 0.06 | 93 | 1014.2 |
| 20260505231048 | 54 | 243 | 0.0 | 3.5 | 0.04 | 0.28 | 0.06 | 93 | 1014.2 |
| 20260505230515 | 54 | 243 | 0.9 | 4.3 | 0.04 | 0.28 | 0.06 | 93 | 1014.2 |
| 20260505230021 | 54 | 244 | 2.6 | 4.3 | 0.04 | 0.28 | 0.06 | 93 | 1014.2 |
| 20260505225524 | 55 | 245 | 1.7 | 4.3 | 0.12 | 0.28 | 0.06 | 93 | 1014.2 |
| 20260505225027 | 55 | 248 | 0.0 | 3.5 | 0.12 | 0.28 | 0.06 | 93 | 1014.3 |
| 20260505224530 | 55 | 248 | 0.9 | 3.5 | 0.12 | 0.28 | 0.06 | 92 | 1014.3 |
| 20260505224013 | 55 | 248 | 1.7 | 3.5 | 0.12 | 0.28 | 0.06 | 92 | 1014.3 |
| 20260505223536 | 55 | 249 | 1.7 | 4.3 | 0.12 | 0.28 | 0.06 | 92 | 1014.4 |
| 20260505223038 | 55 | 250 | 2.6 | 4.3 | 0.12 | 0.28 | 0.06 | 92 | 1014.3 |
| 20260505222521 | 55 | 250 | 1.7 | 3.5 | 0.08 | 0.24 | 0.05 | 92 | 1014.3 |
| 20260505222024 | 55 | 250 | 0.9 | 1.7 | 0.08 | 0.24 | 0.05 | 91 | 1014.3 |
| 20260505221528 | 55 | 250 | 0.0 | 0.0 | 0.08 | 0.24 | 0.05 | 91 | 1014.4 |
| 20260505221030 | 55 | 250 | 0.0 | 0.0 | 0.08 | 0.24 | 0.05 | 90 | 1014.3 |
| 20260505220511 | 55 | 250 | 0.0 | 2.6 | 0.08 | 0.24 | 0.05 | 90 | 1014.3 |